DW0126 Weather Reports


Display with metric or nautical units.
time (UTC)temp
F
wind
direction
speed
MPH
gust
MPH
rain 1hr
in
rain 24hr
in
rain mn
in
humidity
%
barometer
mb
20260509084817 47 0.0 0.0 0.00 0.00 0.00 91 1022.5
20260509083837 47 0.0 0.0 0.00 0.00 0.00 91 1022.6
20260509082817 47 0.0 0.0 0.00 0.00 0.00 91 1022.7
20260509081817 48 0.0 0.0 0.00 0.00 0.00 90 1022.7
20260509080817 48 0.0 0.0 0.00 0.00 0.00 90 1022.8
20260509075816 48 0.0 0.0 0.00 0.00 0.00 90 1022.8
20260509074817 48 0.0 0.0 0.00 0.00 0.00 90 1022.7
20260509073817 48 0.0 0.0 0.00 0.00 0.00 90 1022.7
20260509072817 48 0.0 0.0 0.00 0.00 0.00 90 1022.7
20260509071817 49 0.0 0.0 0.00 0.00 0.00 90 1022.6
20260509070816 49 0.0 0.0 0.00 0.00 0.00 89 1022.6
20260509065815 49 0.0 0.0 0.00 0.00 0.00 88 1022.5
20260509064815 49 0.0 0.0 0.00 0.00 0.00 87 1022.4
20260509063816 50 0.0 0.0 0.00 0.00 0.00 87 1022.4
20260509062816 50 0.0 0.0 0.00 0.00 0.00 86 1022.4
20260509061815 51 0.0 0.0 0.00 0.00 0.00 87 1022.3
20260509060816 51 0.0 0.0 0.00 0.00 0.00 86 1022.2
20260509055816 51 0.0 0.0 0.00 0.00 0.00 86 1022.2
20260509054815 52 0.0 0.0 0.00 0.00 0.00 86 1022.2
20260509053855 52 0.0 0.0 0.00 0.00 0.00 85 1022.1
20260509052835 52 0.0 0.0 0.00 0.00 0.00 84 1022.2
20260509051815 53 0.0 0.0 0.00 0.00 0.00 83 1022.2
20260509050815 53 0.0 0.0 0.00 0.00 0.00 82 1022.1
20260509045815 54 225 1.0 3.0 0.00 0.00 0.00 81 1022.0
20260509044835 54 225 2.0 2.0 0.00 0.00 0.00 81 1022.0
20260509043836 55 0.0 0.0 0.00 0.00 0.00 81 1021.9
20260509042815 55 0.0 1.0 0.00 0.00 0.00 79 1021.9
20260509041815 56 0.0 0.0 0.00 0.00 0.00 78 1021.9
20260509040816 56 225 2.0 3.0 0.00 0.00 0.00 77 1021.9
20260509035815 56 0.0 0.0 0.00 0.00 0.00 77 1021.8
20260509034815 57 225 2.0 3.0 0.00 0.00 0.00 76 1021.8
20260509033815 57 248 3.0 4.0 0.00 0.00 0.00 75 1021.6
20260509032836 57 248 3.0 5.0 0.00 0.00 0.00 74 1021.6
20260509031816 57 248 3.0 4.0 0.00 0.00 0.00 74 1021.5
20260509030815 57 203 4.0 6.0 0.00 0.00 0.00 73 1021.4
20260509025815 58 225 4.0 7.0 0.00 0.00 0.00 72 1021.4
20260509024816 59 248 2.0 4.0 0.00 0.00 0.00 70 1021.3
20260509023815 60 248 1.0 3.0 0.00 0.00 0.00 69 1021.3
20260509022816 60 225 3.0 5.0 0.00 0.00 0.00 67 1021.2
20260509021816 61 248 2.0 6.0 0.00 0.00 0.00 66 1021.1
20260509020836 61 270 2.0 4.0 0.00 0.00 0.00 65 1021.1
20260509015815 61 225 4.0 6.0 0.00 0.00 0.00 65 1021.0
20260509014816 61 293 5.0 9.0 0.00 0.00 0.00 65 1021.1
20260509013815 61 248 4.0 5.0 0.00 0.00 0.00 64 1021.1
20260509012836 62 248 5.0 8.0 0.00 0.00 0.00 64 1021.2
20260509011815 62 248 3.0 6.0 0.00 0.00 0.00 63 1021.1
20260509010836 62 248 7.0 10.0 0.00 0.00 0.00 63 1021.3
20260509005815 62 225 4.0 6.0 0.00 0.00 0.00 63 1021.2
20260509004815 62 293 3.0 5.0 0.00 0.00 0.00 62 1021.2
20260509003815 61 270 3.0 4.0 0.00 0.00 0.00 61 1021.2
20260509002816 62 248 3.0 6.0 0.00 0.00 0.00 60 1021.3
20260509001815 63 293 3.0 5.0 0.00 0.00 0.00 60 1021.2
20260509000815 63 293 3.0 6.0 0.00 0.00 0.00 59 1021.2
20260508235815 62 270 2.0 4.0 0.00 0.00 0.00 60 1021.2
20260508234815 62 248 5.0 7.0 0.00 0.00 0.00 59 1021.3
20260508233816 62 225 5.0 8.0 0.00 0.00 0.00 58 1021.3
20260508232815 63 248 6.0 10.0 0.00 0.00 0.00 57 1021.3
20260508231815 63 248 5.0 9.0 0.00 0.00 0.00 57 1021.2
20260508230815 64 225 3.0 5.0 0.00 0.00 0.00 56 1021.2
20260508225816 63 225 3.0 8.0 0.00 0.00 0.00 57 1021.3
20260508224836 62 225 6.0 8.0 0.00 0.00 0.00 59 1021.2
20260508223815 62 225 6.0 8.0 0.00 0.00 0.00 59 1021.2
20260508222815 61 225 5.0 8.0 0.00 0.00 0.00 60 1021.3
20260508221815 61 225 4.0 6.0 0.00 0.00 0.00 60 1021.4
20260508220816 61 203 5.0 9.0 0.00 0.00 0.00 61 1021.4
20260508215816 61 225 4.0 5.0 0.00 0.00 0.00 59 1021.3
20260508214815 61 293 5.0 7.0 0.00 0.00 0.00 59 1021.2
20260508213816 61 248 5.0 8.0 0.00 0.00 0.00 58 1021.2
20260508212815 60 270 3.0 5.0 0.00 0.00 0.00 59 1021.1
20260508211815 60 248 4.0 7.0 0.00 0.00 0.00 59 1021.1
20260508210815 60 248 4.0 8.0 0.00 0.00 0.00 61 1021.1
20260508205817 59 225 6.0 9.0 0.00 0.00 0.00 61 1021.0
20260508204816 60 225 7.0 10.0 0.00 0.00 0.00 59 1021.0
20260508203818 60 225 7.0 11.0 0.00 0.00 0.00 59 1020.9
20260508202816 59 225 6.0 11.0 0.00 0.00 0.00 61 1020.9
20260508201815 60 225 6.0 11.0 0.00 0.00 0.00 61 1020.8
20260508200815 60 225 6.0 10.0 0.00 0.00 0.00 60 1020.9
20260508195816 61 248 3.0 7.0 0.00 0.00 0.00 61 1020.9
20260508194815 60 180 5.0 8.0 0.00 0.00 0.00 62 1020.8
20260508193855 59 180 3.0 6.0 0.00 0.00 0.00 65 1020.8
20260508192815 57 225 4.0 8.0 0.00 0.00 0.00 67 1020.7
20260508191815 57 225 3.0 6.0 0.00 0.00 0.00 66 1020.9
20260508190815 57 225 4.0 8.0 0.00 0.00 0.00 67 1020.8
20260508185816 56 225 6.0 10.0 0.00 0.00 0.00 68 1020.8
20260508184816 56 225 5.0 9.0 0.00 0.00 0.00 69 1020.7
20260508183855 56 225 4.0 7.0 0.00 0.00 0.00 69 1020.8
20260508182836 56 225 3.0 7.0 0.00 0.00 0.00 70 1020.6
20260508181815 55 315 1.0 4.0 0.00 0.00 0.00 72 1020.7
20260508180815 54 225 3.0 5.0 0.00 0.00 0.00 73 1020.7
20260508175835 53 203 3.0 5.0 0.00 0.00 0.00 74 1020.6
20260508174815 53 180 1.0 4.0 0.00 0.00 0.00 74 1020.6
20260508173815 53 225 5.0 8.0 0.00 0.00 0.00 74 1020.5
20260508172815 53 225 4.0 6.0 0.00 0.00 0.00 75 1020.4
20260508171815 53 225 5.0 7.0 0.00 0.00 0.00 75 1020.4
20260508170815 52 225 5.0 8.0 0.00 0.00 0.00 74 1020.1
20260508165836 52 225 4.0 6.0 0.00 0.00 0.00 73 1019.9
20260508164815 52 225 5.0 11.0 0.00 0.00 0.00 73 1019.9
20260508163815 52 225 3.0 9.0 0.00 0.00 0.00 74 1020.0
20260508162816 52 248 3.0 4.0 0.00 0.00 0.00 74 1019.8
20260508161815 52 248 5.0 7.0 0.00 0.00 0.00 74 1019.8
20260508160815 52 225 4.0 6.0 0.00 0.00 0.00 75 1019.5
20260508155816 52 248 5.0 7.0 0.00 0.00 0.00 75 1019.6
20260508154815 52 225 5.0 7.0 0.00 0.00 0.00 75 1019.4
20260508153815 52 225 5.0 8.0 0.00 0.00 0.00 78 1019.3
20260508152815 51 225 3.0 6.0 0.00 0.00 0.00 78 1019.3
20260508151815 51 203 4.0 8.0 0.00 0.00 0.00 80 1019.3
20260508150815 51 225 3.0 5.0 0.00 0.00 0.00 81 1019.4
20260508145815 51 203 1.0 3.0 0.00 0.00 0.00 82 1019.3
20260508144815 50 203 3.0 5.0 0.00 0.00 0.00 84 1019.4
20260508143815 50 180 3.0 9.0 0.00 0.00 0.00 84 1019.6
20260508142815 49 225 1.0 4.0 0.00 0.00 0.00 85 1019.5
20260508141815 49 225 1.0 3.0 0.00 0.00 0.00 86 1019.4
20260508140815 49 248 3.0 4.0 0.00 0.00 0.00 87 1019.4
20260508135815 48 248 2.0 4.0 0.00 0.00 0.00 87 1019.3
20260508134815 48 158 1.0 4.0 0.00 0.00 0.00 87 1019.0
20260508134255 48 158 3.0 5.0 0.00 0.00 0.00 87 1018.9
20260508133215 48 225 3.0 6.0 0.00 0.00 0.00 88 1018.7
20260508132215 48 248 3.0 5.0 0.00 0.00 0.00 88 1018.7
20260508131215 48 248 2.0 6.0 0.00 0.00 0.00 87 1018.5
20260508130215 48 225 2.0 3.0 0.00 0.00 0.00 87 1018.3
20260508125215 48 248 3.0 4.0 0.00 0.00 0.00 87 1017.9
20260508124215 48 225 3.0 5.0 0.00 0.00 0.00 87 1017.9
20260508123215 48 225 3.0 5.0 0.00 0.00 0.00 87 1018.0
20260508122215 48 225 3.0 4.0 0.00 0.00 0.00 88 1018.1
20260508121215 48 180 3.0 6.0 0.00 0.00 0.00 88 1017.9
20260508120215 48 203 4.0 6.0 0.00 0.00 0.00 88 1017.7
20260508115215 48 225 6.0 10.0 0.00 0.00 0.00 87 1017.7
20260508114215 48 225 1.0 3.0 0.00 0.00 0.00 87 1017.7
20260508113215 48 225 5.0 7.0 0.00 0.00 0.00 87 1017.5
20260508112215 48 225 5.0 7.0 0.00 0.00 0.00 87 1017.3
20260508111215 49 225 2.0 4.0 0.00 0.00 0.00 87 1017.2
20260508110215 49 203 4.0 6.0 0.00 0.00 0.00 87 1017.1
20260508105215 49 0.0 0.0 0.00 0.00 0.00 87 1017.1
20260508104215 49 248 4.0 7.0 0.00 0.00 0.00 87 1017.0
20260508103215 49 0.0 3.0 0.00 0.00 0.00 87 1016.8
20260508102215 49 225 1.0 3.0 0.00 0.00 0.00 87 1016.7
20260508101215 49 248 2.0 2.0 0.00 0.00 0.00 87 1016.6
20260508100215 49 0.0 0.0 0.00 0.00 0.00 87 1016.6
20260508095215 49 0.0 1.0 0.00 0.00 0.00 87 1016.6
20260508094215 49 0.0 0.0 0.00 0.00 0.00 87 1016.5
20260508093215 49 0.0 0.0 0.00 0.00 0.00 87 1016.4
20260508092215 49 0.0 0.0 0.00 0.00 0.00 86 1016.5
20260508091215 49 0.0 0.0 0.00 0.00 0.00 86 1016.4
20260508090215 49 0.0 1.0 0.00 0.00 0.00 86 1016.5